Location: Washington
(38.8950°N, 77.0370°W)
Time: 05:14:25
(UTC-05:00)

Amateur Radio Satellites - All Passes

Search period start: 25 January 2015 04:44
Search period end: 26 January 2015 04:44
Location: Washington, 38.8950°N, 77.0370°W

Satellite Date Start Highest point End Downlink Frequencies (MHz)
Time Altitude Azimuth
STRAND 1 25 Jan 05:01:19 05:04:29 17° 65° (ENE) 05:07:51 437.568
CUTE-I 25 Jan 05:03:05 05:03:41 10° 87° (E) 05:04:41 437.470
AIST 2 25 Jan 05:04:05 05:07:47 27° 311° (NW) 05:11:28 435.215
MOZHAYETS 4 25 Jan 05:09:41 05:13:28 24° 266° (W) 05:17:10
CUBESAT XI-V 25 Jan 05:11:21 05:15:04 25° 69° (ENE) 05:18:51 437.345
PCSat 25 Jan 05:26:33 05:31:58 89° 290° (WNW) 05:37:27 145.827
DANDE 25 Jan 05:32:52 05:40:32 61° 284° (WNW) 05:49:08 436.750
PRISM 25 Jan 05:37:03 05:41:11 76° 74° (ENE) 05:45:17 437.425
ISS 25 Jan 05:42:30 05:45:41 42° 33° (NNE) 05:48:50 145.825
JAS-2 25 Jan 05:42:37 05:47:52 46° 288° (WNW) 05:53:39 435.910
Cubesat XI-IV 25 Jan 06:17:48 06:23:08 61° 101° (E) 06:28:27 437.490
YUBILEINY 25 Jan 06:29:36 06:37:42 41° 73° (ENE) 06:45:55 435.215
CUSAT 1 25 Jan 06:29:36 06:35:58 24° 297° (WNW) 06:42:19 437.405
AO-7 25 Jan 06:33:14 06:39:08 21° 305° (NW) 06:44:40 29.400- 29.500
STRAND 1 25 Jan 06:38:19 06:43:18 55° 260° (W) 06:48:19 437.568
CUTE-I 25 Jan 06:39:11 06:44:35 87° 287° (WNW) 06:49:58 437.470
RS-15 25 Jan 06:40:06 06:50:55 62° 308° (NW) 07:01:49 29.354- 29.394
CUBESAT XI-V 25 Jan 06:48:23 06:52:26 29° 265° (W) 06:56:26 437.345
PCSat 25 Jan 07:13:09 07:16:16 15° 318° (NW) 07:19:11 145.827
ISS 25 Jan 07:19:33 07:22:01 19° 228° (SW) 07:24:24 145.825
DANDE 25 Jan 07:22:26 07:26:11 13° 306° (NW) 07:29:27 436.750
HO-68 25 Jan 07:44:56 07:49:33 19° 90° (E) 07:54:31 435.675
Cubesat XI-IV 25 Jan 07:59:15 08:02:48 18° 296° (WNW) 08:06:08 437.490
DOVE 4 25 Jan 08:02:57 08:05:21 14° 87° (E) 08:08:01 437.250
CANX-2 25 Jan 08:09:21 08:12:27 20° 93° (E) 08:15:39 2200.000
COMPASS 1 25 Jan 08:10:05 08:11:49 13° 90° (E) 08:13:46 437.405
CUTE-I 25 Jan 08:22:12 08:23:58 11° 299° (WNW) 08:25:25 437.470
CINEMA 3 25 Jan 08:25:00 08:26:23 11° 86° (E) 08:28:04 145.822/145.860
YUBILEINY 25 Jan 08:26:28 08:34:34 42° 272° (W) 08:42:32 435.215
CUTE 1.7 + AOD 2 25 Jan 08:33:38 08:37:30 35° 96° (E) 08:41:23 437.475
AAUSAT CUBESAT 2 25 Jan 08:38:39 08:42:00 24° 94° (E) 08:45:25 437.432
BRITE-PL 25 Jan 08:45:31 08:51:14 74° 100° (E) 08:56:47 437.365/2234.400
RS-15 25 Jan 08:58:08 09:06:16 22° 337° (NNW) 09:14:17 29.354- 29.394
DELFI C3 25 Jan 09:00:41 09:03:08 16° 92° (E) 09:05:43 145.870
GOMX 1 25 Jan 09:04:33 09:10:04 79° 100° (E) 09:15:22 467.674
DX 1 25 Jan 09:07:52 09:10:16 15° 91° (E) 09:12:51 434.975-435.025
UNISAT 6 25 Jan 09:08:54 09:12:41 25° 69° (ENE) 09:16:34 437.425
SEEDS 25 Jan 09:10:31 09:14:45 83° 102° (ESE) 09:18:55 437.485
VERMONT LUNAR 25 Jan 09:11:34 09:13:16 13° 145° (SE) 09:15:03 437.305
FUNcube-1 25 Jan 09:12:00 09:14:02 13° 89° (E) 09:16:18 145.935
UWE-3 25 Jan 09:19:24 09:22:45 21° 92° (E) 09:26:09 435.000/436.395/437.385
NANOSAT C BR1 25 Jan 09:23:51 09:26:51 19° 68° (ENE) 09:29:59 145.865
HO-68 25 Jan 09:30:54 09:38:04 74° 288° (WNW) 09:45:10 435.675
QB50P2 25 Jan 09:34:54 09:38:25 26° 70° (ENE) 09:42:02 145.880/145.840
HUMSAT D 25 Jan 09:37:09 09:39:08 13° 89° (E) 09:41:20 437.325/437.525
DOVE 4 25 Jan 09:38:29 09:43:45 68° 285° (WNW) 09:48:47 437.250
VELOX 1 25 Jan 09:41:41 09:43:31 13° 90° (E) 09:45:37 145.980
PHONESAT 2.4 25 Jan 09:43:27 09:45:17 14° 145° (SE) 09:47:13 2401.200-2431.200
ANTELSAT 25 Jan 09:43:33 09:48:11 57° 74° (ENE) 09:52:50 437.575/2403.000
COMPASS 1 25 Jan 09:43:53 09:47:54 47° 286° (WNW) 09:51:54 437.405
CANX-2 25 Jan 09:44:44 09:48:29 30° 289° (WNW) 09:52:10 2200.000
QB50P1 25 Jan 09:45:33 09:49:22 33° 71° (ENE) 09:53:16 145.935-145.965
TIGRISAT 25 Jan 09:53:58 09:58:40 73° 76° (ENE) 10:03:23 435.000
Oscar 11 25 Jan 09:54:17 09:58:38 88° 102° (ESE) 10:02:56 145.826/435.025
50 SAT 25 Jan 09:54:45 09:57:06 15° 91° (E) 09:59:35 437.505
POLYITAN 1 25 Jan 09:56:53 10:00:58 46° 73° (ENE) 10:05:08 437.675
CINEMA 3 25 Jan 09:59:21 10:04:16 70° 285° (WNW) 10:08:58 145.822/145.860
CUBEBUG 2 25 Jan 10:05:13 10:09:54 81° 102° (ESE) 10:14:23 437.445
CUTE 1.7 + AOD 2 25 Jan 10:10:14 10:13:14 18° 292° (WNW) 10:16:05 437.475
AAUSAT CUBESAT 2 25 Jan 10:14:12 10:17:40 25° 289° (WNW) 10:21:01 437.432
POPSAT HIP 1 25 Jan 10:19:14 10:23:30 83° 77° (ENE) 10:27:49 437.405
BUGSAT 1 25 Jan 10:20:59 10:25:00 65° 75° (ENE) 10:29:06 437.445
DUCHIFAT 1 25 Jan 10:24:37 10:28:52 86° 257° (WSW) 10:33:11 145.980
BRITE-PL 25 Jan 10:25:38 10:29:08 16° 297° (WNW) 10:32:20 437.365/2234.400
UKube-1 25 Jan 10:27:05 10:31:27 72° 285° (WNW) 10:35:48 .
ZACube-1 25 Jan 10:32:49 10:37:19 72° 285° (WNW) 10:41:39 437.345
ESTCUBE 1 25 Jan 10:34:28 10:37:53 21° 93° (E) 10:41:25 437.505/2401.250
DELFI C3 25 Jan 10:34:50 10:38:34 35° 288° (WNW) 10:42:14 145.870
DX 1 25 Jan 10:42:36 10:46:50 46° 287° (WNW) 10:51:02 434.975-435.025
GOMX 1 25 Jan 10:44:38 10:47:31 14° 297° (WNW) 10:50:07 467.674
UNISAT 6 25 Jan 10:45:08 10:49:22 32° 264° (W) 10:53:35 437.425
AISAT 25 Jan 10:45:20 10:49:51 68° 102° (ESE) 10:54:20 437.250
FUNcube-1 25 Jan 10:46:28 10:50:49 51° 286° (WNW) 10:55:02 145.935
VERMONT LUNAR 25 Jan 10:47:32 10:50:58 56° 159° (SSE) 10:54:26 437.305
UWE-3 25 Jan 10:55:18 10:59:27 34° 289° (WNW) 11:03:26 435.000/436.395/437.385
BEESAT 3 25 Jan 10:57:52 10:59:45 13° 42° (NE) 11:01:47 437.485
NANOSAT C BR1 25 Jan 10:58:38 11:02:31 34° 263° (W) 11:06:26 145.865
QB50P2 25 Jan 11:10:45 11:14:19 25° 266° (W) 11:17:51 145.880/145.840
HUMSAT D 25 Jan 11:11:11 11:15:18 46° 286° (WNW) 11:19:19 437.325/437.525
VELOX 1 25 Jan 11:16:08 11:20:33 56° 286° (WNW) 11:24:56 145.980
RS-15 25 Jan 11:17:17 11:24:23 18° 13° (NNE) 11:31:51 29.354- 29.394
PHONESAT 2.4 25 Jan 11:19:52 11:23:25 57° 159° (SSE) 11:27:01 2401.200-2431.200
HO-68 25 Jan 11:21:15 11:24:45 14° 305° (NW) 11:27:50 435.675
QB50P1 25 Jan 11:22:16 11:25:24 19° 267° (W) 11:28:25 145.935-145.965
ANTELSAT 25 Jan 11:22:55 11:25:24 14° 271° (W) 11:27:40 437.575/2403.000
50 SAT 25 Jan 11:28:39 11:32:27 37° 287° (WNW) 11:36:10 437.505
SO-50 25 Jan 11:33:23 11:37:56 84° 303° (WNW) 11:42:40 436.795
POLYITAN 1 25 Jan 11:34:51 11:37:15 14° 270° (W) 11:39:27 437.675
TIGRISAT 25 Jan 11:34:54 11:36:01 11° 273° (W) 11:36:49 435.000
CUBEBUG 1 25 Jan 11:38:08 11:42:36 79° 282° (WNW) 11:47:02 437.445
SPROUT 25 Jan 11:41:56 11:45:33 26° 95° (E) 11:49:13 437.525
CUBEBUG 2 25 Jan 11:45:12 11:45:57 10° 297° (WNW) 11:46:26 437.445
AIST 2 25 Jan 11:49:00 11:51:42 16° 44° (NE) 11:54:28 435.215
AIST 1 25 Jan 11:55:25 11:59:40 89° 100° (E) 12:03:58
ESTCUBE 1 25 Jan 12:10:47 12:14:52 33° 289° (WNW) 12:18:54 437.505/2401.250
BEESAT 2 25 Jan 12:15:35 12:19:44 60° 56° (ENE) 12:23:49 435.950
AISAT 25 Jan 12:24:14 12:25:58 12° 296° (WNW) 12:27:27 437.250
VERMONT LUNAR 25 Jan 12:25:37 12:29:07 67° 355° (N) 12:32:39 437.305
GONETS M04 25 Jan 12:31:17 12:39:43 53° 76° (ENE) 12:48:11
SWISSCUBE 25 Jan 12:33:08 12:35:46 15° 90° (E) 12:38:37 437.505
TISAT 1 25 Jan 12:33:58 12:38:18 80° 284° (WNW) 12:42:35 437.305
BEESAT 3 25 Jan 12:34:18 12:38:28 74° 241° (WSW) 12:42:33 437.485
Oscar 19 25 Jan 12:43:27 12:48:38 74° 75° (ENE) 12:53:51 437.125/150
BEESAT 25 Jan 12:49:09 12:52:39 21° 93° (E) 12:56:17 436.000
ITUPSAT 1 25 Jan 12:50:11 12:53:42 21° 93° (E) 12:57:21 437.325
ITAMSAT 1 25 Jan 12:50:31 12:54:56 30° 69° (ENE) 12:59:28 435.822/435.867
PHONESAT 2.4 25 Jan 12:58:23 13:02:02 68° 357° (N) 13:05:41 2401.200-2431.200
SO-50 25 Jan 13:17:09 13:19:19 13° 322° (NW) 13:21:22 436.795
SPROUT 25 Jan 13:17:58 13:21:37 26° 290° (WNW) 13:25:10 437.525
Gurwin Techsat 1B 25 Jan 13:21:16 13:26:08 40° 71° (ENE) 13:31:05 435.225
AIST 2 25 Jan 13:26:31 13:30:44 57° 242° (WSW) 13:34:50 435.215
RS-15 25 Jan 13:30:20 13:40:55 44° 44° (NE) 13:52:04 29.354- 29.394
HORYU 2 25 Jan 13:31:10 13:33:23 14° 65° (ENE) 13:35:48 437.375
AO-7 25 Jan 13:46:18 13:52:23 24° 56° (NE) 13:58:45 29.400- 29.500
BEESAT 2 25 Jan 13:56:02 13:57:30 11° 251° (WSW) 13:58:45 435.950
VERMONT LUNAR 25 Jan 14:03:51 14:07:24 86° 12° (NNE) 14:10:57 437.305
SWISSCUBE 25 Jan 14:09:22 14:14:01 52° 287° (WNW) 14:18:39 437.505
PCSat 25 Jan 14:15:48 14:21:07 56° 58° (ENE) 14:26:27 145.827
KKS-1 25 Jan 14:20:24 14:24:34 36° 98° (E) 14:28:43 437.445
STARS 25 Jan 14:24:10 14:27:52 26° 95° (E) 14:31:38 437.465
BEESAT 25 Jan 14:26:15 14:30:41 38° 289° (WNW) 14:35:04 436.000
Oscar 19 25 Jan 14:26:28 14:28:39 12° 272° (W) 14:30:29 437.125/150
ITUPSAT 1 25 Jan 14:27:20 14:31:47 38° 289° (WNW) 14:36:11 437.325
GONETS M04 25 Jan 14:28:50 14:36:13 31° 274° (W) 14:43:21
ITAMSAT 1 25 Jan 14:29:50 14:34:24 31° 264° (W) 14:38:56 435.822/435.867
PHONESAT 2.4 25 Jan 14:37:05 14:40:45 87° 12° (NNE) 14:44:26 2401.200-2431.200
DANDE 25 Jan 14:37:50 14:42:45 20° 59° (ENE) 14:47:08 436.750
AUBIESAT-1 25 Jan 15:00:12 15:02:44 20° 100° (E) 15:05:21 437.475
Gurwin Techsat 1B 25 Jan 15:01:58 15:06:17 24° 267° (W) 15:10:29 435.225
HORYU 2 25 Jan 15:05:13 15:09:39 56° 260° (W) 15:14:06 437.375
CUSAT 1 25 Jan 15:29:04 15:35:44 56° 75° (ENE) 15:40:44 437.405
AO-7 25 Jan 15:36:02 15:44:25 79° 254° (WSW) 15:52:51 29.400- 29.500
VERMONT LUNAR 25 Jan 15:42:14 15:45:21 28° 208° (SSW) 15:48:26 437.305
RS-15 25 Jan 15:42:43 15:53:51 59° 246° (WSW) 16:05:22 29.354- 29.394
JAS-2 25 Jan 15:53:40 15:59:19 63° 74° (ENE) 16:04:33 435.910
KKS-1 25 Jan 15:57:39 16:01:00 20° 293° (WNW) 16:04:13 437.445
M-CUBED/EXP-1 PRIME 25 Jan 15:57:42 16:00:55 48° 290° (WNW) 16:04:09 437.505
PCSat 25 Jan 16:00:22 16:04:09 19° 253° (WSW) 16:07:44 145.827
STARS 25 Jan 16:00:32 16:04:20 27° 290° (WNW) 16:08:02 437.465
Cubesat XI-IV 25 Jan 16:03:13 16:04:35 11° 61° (ENE) 16:06:17 437.490
PHONESAT 2.4 25 Jan 16:15:55 16:19:09 29° 208° (SSW) 16:22:22 2401.200-2431.200
DANDE 25 Jan 16:20:11 16:27:18 65° 266° (W) 16:32:35 436.750
CUTE-I 25 Jan 16:22:22 16:25:38 17° 64° (ENE) 16:29:08 437.470
AUBIESAT-1 25 Jan 16:35:16 16:37:38 18° 295° (WNW) 16:39:58 437.475
MOZHAYETS 4 25 Jan 17:05:04 17:09:40 87° 104° (ESE) 17:14:13
O/OREOS (USA 219) 25 Jan 17:08:19 17:12:48 82° 293° (WNW) 17:17:20 437.305
CUSAT 1 25 Jan 17:13:36 17:17:52 18° 279° (W) 17:21:16 437.405
PRISM 25 Jan 17:23:27 17:24:44 11° 90° (E) 17:26:15 437.425
AO-7 25 Jan 17:34:31 17:38:41 14° 274° (W) 17:42:11 29.400- 29.500
Cubesat XI-IV 25 Jan 17:38:41 17:43:59 87° 78° (ENE) 17:49:22 437.490
JAS-2 25 Jan 17:41:43 17:44:55 15° 269° (W) 17:47:42 435.910
CUTE-I 25 Jan 18:00:03 18:05:17 60° 259° (W) 18:10:34 437.470
HO-68 25 Jan 18:14:48 18:17:53 14° 55° (NE) 18:21:22 435.675
SO-50 25 Jan 18:28:04 18:29:16 11° 36° (NE) 18:30:41 436.795
CUBESAT XI-V 25 Jan 18:45:36 18:50:17 74° 102° (ESE) 18:54:59 437.345
STRAND 1 25 Jan 18:49:59 18:55:02 55° 100° (E) 19:00:05 437.568
PRISM 25 Jan 18:56:36 19:00:39 52° 286° (WNW) 19:04:41 437.425
CANX-2 25 Jan 19:02:28 19:04:37 14° 67° (ENE) 19:06:58 2200.000
DOVE 4 25 Jan 19:08:04 19:10:07 13° 62° (ENE) 19:12:29 437.250
CUTE 1.7 + AOD 2 25 Jan 19:25:56 19:29:16 23° 70° (ENE) 19:32:42 437.475
CINEMA 3 25 Jan 19:26:36 19:27:34 11° 62° (ENE) 19:28:51 145.822/145.860
YUBILEINY 25 Jan 19:28:50 19:36:59 49° 90° (E) 19:45:15 435.215
AAUSAT CUBESAT 2 25 Jan 19:29:43 19:32:09 16° 67° (ENE) 19:34:44 437.432
BRITE-PL 25 Jan 19:54:52 19:59:41 70° 76° (ENE) 20:04:58 437.365/2234.400
HO-68 25 Jan 19:57:28 20:04:35 74° 72° (ENE) 20:11:44 435.675
SEEDS 25 Jan 20:01:28 20:05:34 48° 74° (ENE) 20:09:43 437.485
DX 1 25 Jan 20:03:45 20:05:17 12° 64° (ENE) 20:07:03 434.975-435.025
SO-50 25 Jan 20:05:59 20:10:53 63° 56° (NE) 20:15:46 436.795
FUNcube-1 25 Jan 20:08:18 20:09:16 11° 64° (ENE) 20:10:31 145.935
GOMX 1 25 Jan 20:11:00 20:15:54 71° 75° (ENE) 20:21:09 467.674
UWE-3 25 Jan 20:16:03 20:18:54 17° 66° (ENE) 20:21:57 435.000/436.395/437.385
CUBESAT XI-V 25 Jan 20:25:35 20:27:12 11° 296° (WNW) 20:28:35 437.345
STRAND 1 25 Jan 20:30:23 20:33:51 18° 295° (WNW) 20:37:08 437.568
COMPASS 1 25 Jan 20:33:45 20:38:00 84° 258° (WSW) 20:42:16 437.405
CANX-2 25 Jan 20:36:01 20:40:12 50° 261° (W) 20:44:24 2200.000
VELOX 1 25 Jan 20:40:03 20:40:52 11° 63° (ENE) 20:41:58 145.980
DOVE 4 25 Jan 20:42:18 20:47:13 78° 259° (WSW) 20:52:26 437.250
Oscar 11 25 Jan 20:47:41 20:51:57 58° 75° (ENE) 20:56:15 145.826/435.025
JUGNU 25 Jan 20:55:30 20:57:26 12° 181° (S) 20:59:20 437.505
CINEMA 3 25 Jan 20:59:13 21:04:03 88° 250° (WSW) 21:09:07 145.822/145.860
CUTE 1.7 + AOD 2 25 Jan 21:01:20 21:05:07 28° 265° (W) 21:08:50 437.475
CUBEBUG 2 25 Jan 21:01:49 21:06:26 59° 74° (ENE) 21:11:10 437.445
AAUSAT CUBESAT 2 25 Jan 21:03:30 21:07:32 42° 262° (W) 21:11:33 437.432
UKube-1 25 Jan 21:20:44 21:25:03 83° 76° (ENE) 21:29:24 .
DELFI C3 25 Jan 21:21:22 21:25:27 69° 259° (W) 21:29:32 145.870
YUBILEINY 25 Jan 21:26:17 21:34:06 35° 289° (WNW) 21:41:47 435.215
ZACube-1 25 Jan 21:27:08 21:31:42 77° 76° (ENE) 21:36:21 437.345
SRMSAT 25 Jan 21:28:30 21:30:03 11° 176° (S) 21:31:39 437.500
ESTCUBE 1 25 Jan 21:33:46 21:36:45 18° 67° (ENE) 21:39:52 437.505/2401.250
DX 1 25 Jan 21:36:47 21:41:04 62° 258° (WSW) 21:45:25 434.975-435.025
BRITE-PL 25 Jan 21:36:50 21:38:59 12° 275° (W) 21:40:53 437.365/2234.400
ANTELSAT 25 Jan 21:39:17 21:41:08 13° 89° (E) 21:43:13 437.575/2403.000
SEEDS 25 Jan 21:39:35 21:41:45 13° 270° (W) 21:43:41 437.485
FUNcube-1 25 Jan 21:40:29 21:45:03 78° 258° (WSW) 21:49:41 145.935
AISAT 25 Jan 21:42:12 21:46:30 52° 73° (ENE) 21:50:52 437.250
SO-50 25 Jan 21:48:06 21:51:01 15° 250° (WSW) 21:53:43 436.795
HO-68 25 Jan 21:48:08 21:53:05 19° 270° (W) 21:57:41 435.675
TIGRISAT 25 Jan 21:48:46 21:51:28 16° 91° (E) 21:54:18 435.000
UWE-3 25 Jan 21:50:35 21:55:05 49° 262° (W) 21:59:40 435.000/436.395/437.385
GOMX 1 25 Jan 21:52:40 21:54:46 12° 275° (W) 21:56:37 467.674
HUMSAT D 25 Jan 22:01:31 22:05:52 80° 258° (WSW) 22:10:15 437.325/437.525
AIST 1 25 Jan 22:04:44 22:07:48 19° 72° (ENE) 22:11:01
BUGSAT 1 25 Jan 22:07:08 22:08:14 11° 89° (E) 22:09:36 437.445
POPSAT HIP 1 25 Jan 22:07:25 22:09:51 15° 91° (E) 22:12:29 437.405
DUCHIFAT 1 25 Jan 22:12:12 22:14:58 17° 92° (E) 22:17:52 145.980
VELOX 1 25 Jan 22:12:31 22:16:56 73° 258° (WSW) 22:21:23 145.980
50 SAT 25 Jan 22:14:21 22:18:29 74° 258° (WSW) 22:22:39 437.505
ISS 25 Jan 22:22:13 22:24:54 24° 133° (SE) 22:27:39 145.825
Oscar 11 25 Jan 22:27:01 22:28:36 11° 271° (W) 22:29:55 145.826/435.025
CUBEBUG 1 25 Jan 22:33:06 22:37:24 73° 77° (ENE) 22:41:46 437.445
SPROUT 25 Jan 22:35:50 22:38:43 18° 68° (ENE) 22:41:44 437.525
UNISAT 6 25 Jan 22:38:16 22:42:44 60° 101° (E) 22:47:03 437.425
CUBEBUG 2 25 Jan 22:41:10 22:43:37 14° 272° (W) 22:45:50 437.445
NANOSAT C BR1 25 Jan 22:44:51 22:48:55 40° 98° (E) 22:52:59 145.865
QB50P2 25 Jan 22:56:43 23:00:59 58° 100° (E) 23:05:14 145.880/145.840
QB50P1 25 Jan 23:07:27 23:11:47 77° 102° (ESE) 23:16:04 145.935-145.965
ESTCUBE 1 25 Jan 23:09:08 23:13:22 41° 262° (W) 23:17:37 437.505/2401.250
ANTELSAT 25 Jan 23:14:00 23:18:25 53° 286° (WNW) 23:22:41 437.575/2403.000
SRMSAT 25 Jan 23:17:05 23:18:20 11° 186° (S) 23:19:32 437.500
POLYITAN 1 25 Jan 23:19:32 23:23:53 77° 284° (WNW) 23:28:11 437.675
AISAT 25 Jan 23:21:17 23:23:32 13° 270° (W) 23:25:33 437.250
TIGRISAT 25 Jan 23:24:15 23:28:32 42° 288° (WNW) 23:32:39 435.000
TISAT 1 25 Jan 23:25:06 23:29:16 64° 75° (ENE) 23:33:30 437.305
SWISSCUBE 25 Jan 23:39:06 23:41:55 16° 65° (ENE) 23:44:56 437.505
BUGSAT 1 25 Jan 23:39:58 23:44:11 58° 285° (WNW) 23:48:23 437.445
AIST 1 25 Jan 23:41:43 23:45:36 32° 268° (W) 23:49:27
POPSAT HIP 1 25 Jan 23:41:56 23:46:02 43° 287° (WNW) 23:50:06 437.405
DUCHIFAT 1 25 Jan 23:47:01 23:51:01 38° 288° (WNW) 23:54:59 145.980
BEESAT 25 Jan 23:54:54 23:58:25 22° 67° (ENE) 00:02:05 436.000
ITUPSAT 1 25 Jan 23:56:15 23:59:48 22° 67° (ENE) 00:03:29 437.325
ISS 25 Jan 23:58:16 00:01:19 34° 329° (NNW) 00:04:23 145.825
SPROUT 26 Jan 00:10:34 00:14:35 37° 263° (W) 00:18:36 437.525
UNISAT 6 26 Jan 00:16:58 00:19:03 13° 296° (WNW) 00:20:54 437.425
NANOSAT C BR1 26 Jan 00:21:40 00:24:31 17° 293° (WNW) 00:27:13 145.865
QB50P2 26 Jan 00:34:32 00:36:30 13° 295° (WNW) 00:38:13 145.880/145.840
Oscar 19 26 Jan 00:56:52 01:01:15 28° 95° (E) 01:05:41 437.125/150
ITAMSAT 1 26 Jan 01:06:46 01:08:07 11° 88° (E) 01:09:50 435.822/435.867
M-CUBED/EXP-1 PRIME 26 Jan 01:12:48 01:14:48 14° 64° (ENE) 01:16:54 437.505
SWISSCUBE 26 Jan 01:14:47 01:19:26 52° 261° (W) 01:24:05 437.505
KKS-1 26 Jan 01:17:43 01:21:33 29° 70° (ENE) 01:25:28 437.445
STARS 26 Jan 01:20:38 01:23:53 21° 68° (ENE) 01:27:17 437.465
GONETS M04 26 Jan 01:30:15 01:38:51 64° 93° (E) 01:47:28
BEESAT 26 Jan 01:31:38 01:36:05 38° 263° (W) 01:40:30 436.000
ITUPSAT 1 26 Jan 01:33:05 01:37:31 37° 263° (W) 01:41:56 437.325
ISS 26 Jan 01:37:32 01:38:37 11° 348° (NNW) 01:39:41 145.825
Gurwin Techsat 1B 26 Jan 01:39:40 01:43:00 17° 90° (E) 01:46:34 435.225
O/OREOS (USA 219) 26 Jan 01:41:29 01:44:15 16° 55° (NE) 01:47:12 437.305
AUBIESAT-1 26 Jan 01:47:34 01:51:08 29° 68° (ENE) 01:54:32 437.475
BEESAT 2 26 Jan 02:10:54 02:13:19 16° 111° (ESE) 02:15:54 435.950
BEESAT 3 26 Jan 02:27:45 02:31:13 27° 113° (ESE) 02:34:47 437.485
Oscar 19 26 Jan 02:36:03 02:40:38 32° 291° (WNW) 02:45:07 437.125/150
ITAMSAT 1 26 Jan 02:43:05 02:48:20 79° 285° (WNW) 02:53:34 435.822/435.867
M-CUBED/EXP-1 PRIME 26 Jan 02:45:26 02:49:34 48° 255° (WSW) 02:53:23 437.505
KKS-1 26 Jan 02:54:32 02:58:13 24° 266° (W) 03:01:51 437.445
CUSAT 1 26 Jan 02:54:53 02:58:35 15° 80° (E) 03:02:59 437.405
STARS 26 Jan 02:56:07 03:00:12 34° 263° (W) 03:04:15 437.465
HORYU 2 26 Jan 02:58:19 03:02:12 30° 96° (E) 03:06:07 437.375
ISS 26 Jan 03:16:03 03:16:21 10° 8° (N) 03:16:41 145.825
Gurwin Techsat 1B 26 Jan 03:18:12 03:23:24 55° 287° (WNW) 03:28:34 435.225
O/OREOS (USA 219) 26 Jan 03:19:35 03:24:04 52° 253° (WSW) 03:28:32 437.305
AUBIESAT-1 26 Jan 03:22:55 03:26:05 20° 259° (W) 03:29:01 437.475
AIST 2 26 Jan 03:23:31 03:27:29 40° 115° (ESE) 03:31:32 435.215
GONETS M04 26 Jan 03:29:13 03:36:27 27° 293° (WNW) 03:43:22
AO-7 26 Jan 03:39:28 03:47:03 39° 98° (E) 03:54:42 29.400- 29.500
DANDE 26 Jan 03:45:24 03:51:58 31° 86° (E) 03:59:22 436.750
BEESAT 2 26 Jan 03:47:15 03:51:13 44° 306° (NW) 03:55:14 435.950
RS-15 26 Jan 03:55:23 04:03:23 26° 105° (ESE) 04:11:53 29.354- 29.394
MOZHAYETS 4 26 Jan 04:05:40 04:10:14 70° 76° (ENE) 04:14:50
BEESAT 3 26 Jan 04:05:48 04:09:20 26° 310° (NW) 04:12:52 437.485
HORYU 2 26 Jan 04:35:10 04:38:46 24° 291° (WNW) 04:42:15 437.375
